sat.trackr.live / text

‹ back to catalog

STARLINK-11428 [DTC]

NORAD 62417 · 2024-249J

PAYLOAD ACTIVE UNKNOWN

§ Identity

Operator
Country
US
Launch date
2024-12-23
Launch site
AFETR
Launch vehicle
Mass (kg)
RCS (m²)

Purposes: comms

External: N2YO · Heavens-Above · Gunter

§ Orbital elements

Epoch: 2026-05-25T02:00:49.826592Z

Period
91.67 min
Inclination
42.9996°
Eccentricity
0.0002361
Mean motion
15.70851998 rev/d
Perigee alt
354.9 km
Apogee alt
358.1 km
Semi-major
6,734.6 km
B*
1.1514e-3
RAAN
67.3425°
Arg perigee
282.2235°
Mean anomaly
77.8368°
Rev number
8,149

§ Raw data

STARLINK-11428 [DTC]1 62417U 24249J   26145.08391003  .00150067  00000+0  11514-2 0  99952 62417  42.9996  67.3425 0002361 282.2235  77.8368 15.70851998 81498

JSON: /api/v1/satellites/62417 · /tle

For live sub-satellite position, see the globe view (requires WebGL).

§ Visibility from observer

Set your observer location to see the next 7 days of passes ≥ 10°. The values pass through the URL so the page stays shareable.

No JS? Fill the form by hand. The geolocation button needs JavaScript.